Flag for Japan Weather past 2 weeks in Suzuka, Japan

Now
77 °F

Overcast.


Feels Like: 79 °F
Forecast: 69 / 74 °F
Wind: 3 mph from West

Location: Tsu

Current Time: Sep 5, 2015 at 10:11:43 PM

Latest Report: Sep 5, 2015 at 9:00 PM


Visibility: 13 mi

Pressure: 29.84 "Hg

Humidity: 69%

Dew point: 66 °F

Location of SuzukaLocation

Historic Weather in Suzuka — Graph

°F

Suzuka temperature yesterday

Maximum temperature yesterday: 86 °F (at 1:00 PM)
Minimum temperature yesterday: 73 °F (at 2:00 AM)
Average temperature yesterday: 78 °F

Past Weeks' High & Low Weather Summary

 TemperatureHumidityPressure
High91 °F (Aug 22, 12:00 PM)96% (Aug 25, 10:00 PM)29.97 "Hg (Aug 25, 10:00 PM)
Low71 °F (Aug 25, 10:00 PM)45% (Aug 23, 3:00 PM)29.54 "Hg (Aug 25, 8:00 PM)
Average78 °F78%29.79 "Hg
* Reported Aug 21 8:00 PM — Sep 5 8:00 PM, Suzuka, Weather by CustomWeather, © 2015

Note: Actual official high and low records may vary slightly from our data, if they occured in-between our weather recording intervals... More about our weather records

Advertising

Suzuka weather history for previous 24 hours

 ConditionsComfort  
Time TempWeatherWind HumidityBarometerVisibility
8:00 PM
Sat, Sep 5
78 °FWarm.3 mph67%29.84 "HgN/A
7:00 PM80 °FWarm.5 mph67%29.82 "HgN/A
6:00 PM81 °FWarm.5 mph58%29.82 "HgN/A
5:00 PM81 °FWarm.3 mph57%29.81 "HgN/A
4:00 PM81 °FWarm.5 mph58%29.81 "HgN/A
3:00 PM81 °FOvercast.5 mph60%29.80 "Hg12 mi
2:00 PM81 °FWarm.7 mph62%29.82 "HgN/A
1:00 PM81 °FWarm.9 mph62%29.84 "HgN/A
12:00 PM80 °FWarm.8 mph64%29.85 "HgN/A
11:00 AM79 °FWarm.6 mph68%29.88 "HgN/A
10:00 AM80 °FWarm.7 mph64%29.89 "HgN/A
9:00 AM79 °FPartly sunny.3 mph61%29.88 "Hg9 mi
8:00 AM75 °FMild.3 mph69%29.88 "HgN/A
7:00 AM73 °FMild.5 mph74%29.88 "HgN/A
6:00 AM71 °FMild.3 mph79%29.88 "HgN/A
5:00 AM72 °FMild.5 mph76%29.87 "HgN/A
4:00 AM73 °FMild.6 mph75%29.88 "HgN/A
3:00 AM73 °FMild.2 mph74%29.88 "HgN/A
2:00 AM73 °FMild.8 mph74%29.87 "HgN/A
1:00 AM74 °FMild.8 mph71%29.87 "HgN/A
12:00 AM74 °FMild.8 mph68%29.88 "HgN/A
11:00 PM
Fri, Sep 4
76 °FMild.7 mph64%29.87 "HgN/A
10:00 PM76 °FMild.8 mph64%29.87 "HgN/A
Weather by CustomWeather, © 2015

See weather overviewHow to use our weather pages